EW6584 Weather Reports


Display with metric or nautical units.
time (UTC)temp
F
wind
direction
speed
MPH
gust
MPH
rain 1hr
in
rain 24hr
in
rain mn
in
humidity
%
barometer
mb
20260502214526 70 287 3.0 6.0 0.00 0.00 0.00 56 1014.4
20260502213039 70 331 2.0 13.0 0.00 0.00 0.00 55 1014.5
20260502211542 70 333 3.0 8.0 0.00 0.00 0.00 58 1014.6
20260502204558 68 324 1.0 11.0 0.00 0.00 0.00 63 1015.0
20260502203013 68 324 4.0 9.0 0.00 0.00 0.00 63 1014.9
20260502201525 67 354 3.0 9.0 0.00 0.00 0.00 65 1015.0
20260502200029 66 37 1.0 5.0 0.00 0.00 0.00 68 1015.3
20260502194539 65 52 1.0 5.0 0.00 0.00 0.00 69 1015.4
20260502193048 65 330 2.0 8.0 0.00 0.00 0.00 68 1015.4
20260502191558 64 341 3.0 8.0 0.00 0.00 0.00 70 1015.6
20260502190042 63 338 2.0 7.0 0.00 0.00 0.00 71 1015.8
20260502184604 62 74 5.0 12.0 0.00 0.00 0.00 72 1015.9
20260502183105 62 40 1.0 9.0 0.00 0.00 0.00 75 1016.1
20260502183002 61 35 2.0 9.0 0.00 0.00 0.00 74 1016.1
20260502181514 60 70 3.0 12.0 0.00 0.00 0.00 76 1016.2
20260502163030 54 253 0.0 5.0 0.00 0.00 0.00 90 1016.4
20260502161539 53 210 1.0 4.0 0.00 0.00 0.00 93 1016.4
20260502151517 51 207 1.0 3.0 0.00 0.00 0.00 94 1016.5
20260502123007 50 203 0.0 0.0 0.00 0.00 0.00 92 1016.3
20260502121555 50 203 0.0 2.0 0.00 0.00 0.00 92 1016.3
20260502114527 50 203 0.0 1.0 0.00 0.00 0.00 91 1016.6
20260502113041 50 203 0.0 2.0 0.00 0.00 0.00 91 1016.3
20260502111553 51 203 1.0 3.0 0.00 0.00 0.00 91 1016.1
20260502110003 51 203 2.0 5.0 0.00 0.00 0.00 91 1016.8
20260502104516 51 201 1.0 5.0 0.00 0.00 0.00 91 1016.9
20260502103029 51 208 4.0 6.0 0.00 0.00 0.00 91 1017.1
20260502101601 51 207 2.0 5.0 0.00 0.00 0.00 91 1016.8
20260502091511 52 224 2.0 4.0 0.00 0.00 0.00 89 1016.1
20260502070056 55 251 1.0 3.0 0.00 0.00 0.00 83 1016.0
20260502064547 56 250 3.0 5.0 0.00 0.00 0.00 81 1016.1
20260502063038 57 243 1.0 8.0 0.00 0.00 0.00 80 1016.0
20260502061555 58 253 1.0 5.0 0.00 0.00 0.00 78 1015.9
20260502060043 58 254 2.0 7.0 0.00 0.00 0.00 77 1015.8
20260502054527 59 238 4.0 9.0 0.00 0.00 0.00 76 1015.7
20260502053105 60 280 2.0 7.0 0.00 0.00 0.00 70 1015.5
20260502051510 61 323 1.0 4.0 0.00 0.00 0.00 64 1015.3
20260502050021 61 327 0.0 2.0 0.00 0.00 0.00 63 1015.2
20260502044534 61 327 1.0 4.0 0.00 0.00 0.00 62 1015.0
20260502043050 61 330 2.0 6.0 0.00 0.00 0.00 62 1014.9
20260502041540 61 332 2.0 5.0 0.00 0.00 0.00 62 1014.9
20260502040033 61 333 2.0 4.0 0.00 0.00 0.00 62 1014.7
20260502034529 62 328 2.0 6.0 0.00 0.00 0.00 62 1014.6
20260502033021 62 318 3.0 8.0 0.00 0.00 0.00 62 1014.4
20260502031537 63 331 1.0 9.0 0.00 0.00 0.00 62 1014.2
20260502030053 63 322 2.0 4.0 0.00 0.00 0.00 61 1014.1
20260502024538 64 326 0.0 5.0 0.00 0.00 0.00 58 1013.9
20260502023017 65 328 2.0 6.0 0.00 0.00 0.00 57 1013.9
20260502021556 65 339 2.0 10.0 0.00 0.00 0.00 56 1013.8
20260502020049 66 331 4.0 10.0 0.00 0.00 0.00 55 1013.7
20260502014538 67 343 2.0 11.0 0.00 0.00 0.00 54 1013.7
20260502013013 67 327 2.0 10.0 0.00 0.00 0.00 53 1013.8
20260502011525 68 33 1.0 11.0 0.00 0.00 0.00 51 1013.7
20260502010032 69 33 2.0 8.0 0.00 0.00 0.00 50 1013.8
20260502004523 70 4 1.0 5.0 0.00 0.00 0.00 50 1013.9
20260502003009 70 18 2.0 9.0 0.00 0.00 0.00 52 1013.8
20260502001522 71 326 1.0 10.0 0.00 0.00 0.00 51 1013.8
20260502000033 71 318 1.0 6.0 0.00 0.00 0.00 52 1013.9
20260501234540 71 349 1.0 5.0 0.00 0.00 0.00 52 1013.9
20260501233051 71 68 1.0 6.0 0.00 0.00 0.00 51 1013.9
20260501231510 72 335 1.0 5.0 0.00 0.00 0.00 47 1013.9
20260501230024 72 48 1.0 3.0 0.00 0.00 0.00 49 1014.2
20260501224541 71 63 3.0 9.0 0.00 0.00 0.00 48 1014.3
20260501223105 71 328 1.0 5.0 0.00 0.00 0.00 48 1014.5
20260501221601 71 354 1.0 8.0 0.00 0.00 0.00 48 1014.6
20260501220100 71 359 1.0 5.0 0.00 0.00 0.00 46 1014.8
20260501220003 71 326 1.0 5.0 0.00 0.00 0.00 46 1014.8